FW7194 Weather Reports


Display with metric or nautical units.
time (UTC)temp
F
wind
direction
speed
MPH
gust
MPH
rain 1hr
in
rain 24hr
in
rain mn
in
humidity
%
barometer
mb
20260509090236 64 242 0.0 0.0 0.00 0.00 0.00 95 1011.1
20260509085734 64 203 0.0 1.0 0.00 0.00 0.00 95 1011.1
20260509085231 64 233 0.0 0.0 0.00 0.00 0.00 95 1011.1
20260509084727 64 208 0.0 0.0 0.00 0.00 0.00 95 1011.2
20260509084224 64 205 0.0 0.0 0.00 0.00 0.00 95 1011.0
20260509083722 64 205 0.0 0.0 0.00 0.00 0.00 95 1011.0
20260509083218 64 222 0.0 0.0 0.00 0.00 0.00 95 1011.4
20260509082715 64 222 0.0 0.0 0.00 0.00 0.00 95 1011.4
20260509082212 64 223 0.0 0.0 0.00 0.00 0.00 95 1011.6
20260509081709 64 221 0.0 0.0 0.00 0.00 0.00 95 1011.5
20260509081206 64 221 0.0 0.0 0.00 0.00 0.00 95 1011.3
20260509080704 64 224 0.0 0.0 0.00 0.00 0.00 95 1011.5
20260509080201 64 216 0.0 0.0 0.00 0.00 0.00 95 1011.5
20260509075700 64 216 0.0 0.0 0.00 0.00 0.00 95 1011.6
20260509075157 64 238 0.0 0.0 0.00 0.00 0.00 95 1011.6
20260509074654 64 335 0.0 0.0 0.00 0.00 0.00 95 1011.8
20260509074150 64 336 0.0 0.0 0.00 0.00 0.00 95 1012.0
20260509073647 64 336 0.0 0.0 0.00 0.00 0.00 95 1011.6
20260509073144 64 341 0.0 0.0 0.00 0.00 0.00 95 1011.2
20260509072641 64 341 0.0 0.0 0.00 0.00 0.00 95 1011.2
20260509072137 64 341 0.0 0.0 0.00 0.00 0.00 95 1011.3
20260509071634 64 341 1.0 1.0 0.00 0.00 0.00 94 1011.3
20260509071131 64 342 0.0 1.0 0.00 0.00 0.00 94 1011.3
20260509070628 64 339 0.0 0.0 0.00 0.00 0.00 94 1011.6
20260509070124 64 339 0.0 1.0 0.00 0.00 0.00 94 1011.6
20260509065619 64 352 1.0 3.0 0.00 0.00 0.00 94 1011.6
20260509065110 64 12 2.0 2.0 0.00 0.00 0.00 94 1011.3
20260509064608 64 128 3.0 3.0 0.00 0.00 0.00 94 1011.4
20260509064106 64 115 1.0 2.0 0.00 0.00 0.00 94 1012.0
20260509063602 64 281 0.0 0.0 0.00 0.00 0.00 94 1012.5
20260509063059 64 316 2.0 2.0 0.00 0.00 0.00 94 1012.6
20260509062556 64 12 2.0 3.0 0.00 0.00 0.00 94 1012.0
20260509062053 64 16 3.0 3.0 0.00 0.00 0.00 94 1011.8
20260509061550 64 144 0.0 0.0 0.00 0.00 0.00 93 1012.1
20260509061047 64 216 0.0 0.0 0.00 0.00 0.00 93 1012.2
20260509060545 64 208 0.0 0.0 0.00 0.00 0.00 93 1012.3
20260509060040 64 244 0.0 0.0 0.00 0.00 0.00 93 1012.5
20260509055536 64 245 0.0 0.0 0.00 0.00 0.00 93 1012.7
20260509055033 64 225 0.0 0.0 0.00 0.00 0.00 93 1012.4
20260509054529 64 191 0.0 0.0 0.00 0.00 0.00 93 1012.3
20260509054027 64 134 1.0 1.0 0.00 0.00 0.00 93 1012.2
20260509053525 63 185 1.0 5.0 0.00 0.00 0.00 93 1012.2
20260509053016 63 123 0.0 1.0 0.00 0.00 0.00 93 1012.5
20260509052514 63 223 1.0 1.0 0.00 0.00 0.00 92 1013.0
20260509052012 63 190 3.0 5.0 0.00 0.00 0.00 92 1012.8
20260509051509 63 201 0.0 0.0 0.00 0.00 0.00 92 1013.4
20260509051006 63 239 0.0 0.0 0.00 0.00 0.00 92 1013.7
20260509050502 63 239 0.0 0.0 0.00 0.00 0.00 92 1013.5
20260509045959 63 240 0.0 0.0 0.00 0.00 0.00 92 1013.6
20260509045456 63 240 0.0 0.0 0.00 0.00 0.00 92 1013.7
20260509044953 63 240 0.0 0.0 0.00 0.00 0.00 92 1014.1
20260509044451 63 240 0.0 2.0 0.00 0.00 0.00 92 1013.9
20260509043948 63 239 1.0 2.0 0.00 0.00 0.00 92 1013.5
20260509043443 63 231 0.0 1.0 0.00 0.00 0.00 92 1013.3
20260509042940 63 192 0.0 0.0 0.00 0.00 0.00 91 1013.0
20260509042437 63 210 0.0 0.0 0.00 0.00 0.00 91 1013.4
20260509041933 63 218 0.0 0.0 0.00 0.00 0.00 91 1013.7
20260509041430 63 218 0.0 0.0 0.00 0.00 0.00 91 1013.8
20260509040928 63 219 0.0 0.0 0.00 0.00 0.00 91 1014.4
20260509040426 63 220 0.0 0.0 0.00 0.00 0.00 90 1014.5
20260509035922 63 220 0.0 0.0 0.00 0.00 0.00 90 1014.6
20260509035419 63 220 0.0 0.0 0.00 0.00 0.00 90 1014.2
20260509034915 63 220 0.0 0.0 0.00 0.00 0.00 90 1014.3
20260509034414 63 220 0.0 0.0 0.00 0.00 0.00 90 1014.2
20260509033910 63 220 0.0 0.0 0.00 0.00 0.00 90 1014.3
20260509033407 63 220 0.0 0.0 0.00 0.00 0.00 90 1014.3
20260509032904 63 220 0.0 0.0 0.00 0.00 0.00 90 1014.3
20260509032401 63 220 0.0 0.0 0.00 0.00 0.00 89 1014.3
20260509031859 63 220 0.0 0.0 0.00 0.00 0.00 89 1014.6
20260509031356 63 220 0.0 0.0 0.00 0.00 0.00 89 1014.3
20260509030854 63 220 0.0 0.0 0.00 0.00 0.00 89 1014.4
20260509030351 63 220 0.0 0.0 0.00 0.00 0.00 89 1014.6
20260509025848 63 220 0.0 0.0 0.00 0.00 0.00 89 1014.4
20260509025343 63 220 0.0 0.0 0.00 0.00 0.00 89 1014.5
20260509024839 63 115 0.0 0.0 0.00 0.00 0.00 88 1014.2
20260509024335 63 115 0.0 0.0 0.00 0.00 0.00 88 1014.3
20260509023833 63 209 0.0 1.0 0.00 0.00 0.00 88 1014.1
20260509023330 63 211 0.0 0.0 0.00 0.00 0.00 88 1014.4
20260509022827 63 211 0.0 0.0 0.00 0.00 0.00 88 1014.3
20260509022324 63 210 0.0 0.0 0.00 0.00 0.00 88 1014.2
20260509021820 63 211 0.0 0.0 0.00 0.00 0.00 87 1014.2
20260509021318 63 210 0.0 0.0 0.00 0.00 0.00 87 1014.2
20260509020816 64 210 0.0 0.0 0.00 0.00 0.00 87 1014.3
20260509020314 64 210 0.0 0.0 0.00 0.00 0.00 87 1014.1
20260509015811 64 210 0.0 0.0 0.00 0.00 0.00 87 1014.0
20260509015309 64 210 0.0 0.0 0.00 0.00 0.00 86 1014.1
20260509014805 64 210 0.0 0.0 0.00 0.00 0.00 86 1014.2
20260509014302 64 211 0.0 0.0 0.00 0.00 0.00 86 1013.9
20260509013759 64 210 0.0 0.0 0.00 0.00 0.00 85 1014.1
20260509013254 64 210 0.0 0.0 0.00 0.00 0.00 85 1013.8
20260509012751 64 210 0.0 0.0 0.00 0.00 0.00 85 1014.0
20260509012248 64 211 0.0 0.0 0.00 0.00 0.00 85 1014.1
20260509011745 64 210 0.0 0.0 0.00 0.00 0.00 85 1013.9
20260509011242 64 210 0.0 0.0 0.00 0.00 0.00 84 1014.0
20260509010740 64 210 0.0 0.0 0.00 0.00 0.00 84 1014.0
20260509010237 64 210 0.0 0.0 0.00 0.00 0.00 84 1013.9
20260509005735 65 210 0.0 0.0 0.00 0.00 0.00 84 1014.0
20260509005232 65 210 0.0 1.0 0.00 0.00 0.00 83 1013.8
20260509004731 65 199 0.0 0.0 0.00 0.00 0.00 83 1013.6
20260509004229 65 125 1.0 2.0 0.00 0.00 0.00 83 1013.9
20260509003727 65 163 0.0 1.0 0.00 0.00 0.00 83 1013.4
20260509003224 65 170 0.0 1.0 0.00 0.00 0.00 83 1013.6
20260509002722 65 201 0.0 1.0 0.00 0.00 0.00 82 1013.6
20260509002219 65 197 0.0 1.0 0.00 0.00 0.00 82 1013.4
20260509001717 65 165 0.0 2.0 0.00 0.00 0.00 81 1013.5
20260509001212 65 205 0.0 1.0 0.00 0.00 0.00 81 1013.6
20260509000711 65 168 1.0 2.0 0.00 0.00 0.00 81 1013.5
20260509000208 66 127 1.0 2.0 0.00 0.00 0.00 81 1013.4
20260508235704 66 137 1.0 2.0 0.00 0.00 0.00 81 1013.4
20260508235201 66 129 2.0 2.0 0.00 0.00 0.00 81 1013.2
20260508234658 66 137 1.0 2.0 0.00 0.00 0.00 81 1013.0
20260508234155 66 148 1.0 3.0 0.00 0.00 0.00 80 1013.0
20260508233654 66 167 0.0 2.0 0.00 0.00 0.00 80 1013.4
20260508233151 66 148 3.0 3.0 0.00 0.00 0.00 80 1013.4
20260508232649 66 144 2.0 2.0 0.00 0.00 0.00 80 1013.1
20260508232145 66 155 2.0 2.0 0.00 0.00 0.00 80 1013.4
20260508231643 66 191 1.0 3.0 0.00 0.00 0.00 80 1013.5
20260508231139 66 151 2.0 3.0 0.00 0.00 0.00 79 1013.4
20260508230636 66 126 2.0 3.0 0.00 0.00 0.00 79 1013.7
20260508230133 66 143 1.0 2.0 0.00 0.00 0.00 79 1013.5
20260508225631 66 170 0.0 5.0 0.00 0.00 0.00 79 1013.5
20260508225126 66 185 4.0 5.0 0.00 0.00 0.00 79 1013.2
20260508224625 66 163 2.0 3.0 0.00 0.00 0.00 78 1013.2
20260508224122 66 119 3.0 5.0 0.00 0.00 0.00 78 1013.5
20260508223619 66 150 3.0 6.0 0.00 0.00 0.00 78 1013.2
20260508223116 66 175 3.0 6.0 0.00 0.00 0.00 77 1013.1
20260508222614 66 146 5.0 7.0 0.00 0.00 0.00 77 1013.4
20260508222111 67 140 4.0 5.0 0.00 0.00 0.00 77 1013.6
20260508221607 67 153 4.0 6.0 0.00 0.00 0.00 77 1013.6
20260508221103 67 148 3.0 6.0 0.00 0.00 0.00 77 1013.5
20260508220559 67 101 2.0 3.0 0.00 0.00 0.00 77 1013.1
20260508220055 67 167 2.0 6.0 0.00 0.00 0.00 77 1013.5
20260508215553 67 189 0.0 6.0 0.00 0.00 0.00 77 1013.5
20260508215050 67 117 5.0 6.0 0.00 0.00 0.00 76 1013.4
20260508214547 67 111 7.0 8.0 0.00 0.00 0.00 76 1013.4
20260508214043 67 144 3.0 5.0 0.00 0.00 0.00 76 1013.5
20260508213541 67 162 5.0 7.0 0.00 0.00 0.00 76 1013.6
20260508213036 67 181 0.0 7.0 0.00 0.00 0.00 75 1013.8
20260508212533 67 191 1.0 5.0 0.00 0.00 0.00 76 1013.6
20260508212029 67 201 0.0 6.0 0.00 0.00 0.00 76 1013.6
20260508211525 67 123 3.0 8.0 0.00 0.00 0.00 76 1013.6
20260508211022 67 140 3.0 7.0 0.00 0.00 0.00 75 1013.6
20260508210518 67 128 5.0 7.0 0.00 0.00 0.00 75 1013.6
20260508210016 67 123 2.0 7.0 0.00 0.00 0.00 75 1013.3
20260508205512 67 121 4.0 7.0 0.00 0.00 0.00 75 1013.5
20260508205009 67 115 3.0 7.0 0.00 0.00 0.00 74 1013.5
20260508204506 67 116 4.0 9.0 0.00 0.00 0.00 74 1013.5
20260508204001 67 229 6.0 10.0 0.00 0.00 0.00 74 1013.5
20260508203457 68 128 3.0 8.0 0.00 0.00 0.00 73 1013.2
20260508202953 68 117 5.0 9.0 0.00 0.00 0.00 73 1013.4
20260508202451 68 121 5.0 9.0 0.00 0.00 0.00 73 1013.4
20260508201948 68 141 7.0 10.0 0.00 0.00 0.00 72 1013.6
20260508201444 68 82 6.0 9.0 0.00 0.00 0.00 72 1013.7
20260508200941 68 159 5.0 10.0 0.00 0.00 0.00 72 1014.0
20260508200438 68 147 5.0 8.0 0.00 0.00 0.00 72 1013.9
20260508195933 68 168 5.0 9.0 0.00 0.00 0.00 72 1013.9
20260508195431 68 115 3.0 8.0 0.00 0.00 0.00 72 1013.9
20260508194926 68 103 4.0 9.0 0.00 0.00 0.00 71 1014.2
20260508194424 68 114 3.0 7.0 0.00 0.00 0.00 70 1014.2
20260508193920 69 117 5.0 8.0 0.00 0.00 0.00 71 1014.1
20260508193417 69 123 3.0 10.0 0.00 0.00 0.00 71 1013.9
20260508192914 69 129 5.0 6.0 0.00 0.00 0.00 70 1014.1
20260508192411 69 163 12.0 15.0 0.00 0.00 0.00 69 1013.9
20260508191908 69 118 5.0 8.0 0.00 0.00 0.00 69 1014.0
20260508191405 69 87 2.0 8.0 0.00 0.00 0.00 68 1014.1
20260508190902 69 151 5.0 9.0 0.00 0.00 0.00 67 1014.1
20260508190359 70 135 3.0 11.0 0.00 0.00 0.00 65 1014.2
20260508185855 70 126 2.0 6.0 0.00 0.00 0.00 65 1014.3
20260508185353 70 118 5.0 11.0 0.00 0.00 0.00 64 1014.3
20260508184850 70 144 7.0 10.0 0.00 0.00 0.00 65 1014.3
20260508184347 70 55 4.0 11.0 0.00 0.00 0.00 66 1014.3
20260508183844 70 142 3.0 9.0 0.00 0.00 0.00 67 1014.2
20260508183340 71 111 2.0 10.0 0.00 0.00 0.00 64 1014.3
20260508182836 71 68 10.0 13.0 0.00 0.00 0.00 63 1014.4
20260508182333 71 137 9.0 11.0 0.00 0.00 0.00 64 1014.3
20260508181828 71 139 2.0 13.0 0.00 0.00 0.00 64 1014.4
20260508181326 71 77 5.0 9.0 0.00 0.00 0.00 64 1014.5
20260508180823 71 119 5.0 9.0 0.00 0.00 0.00 63 1014.5
20260508180319 71 106 5.0 13.0 0.00 0.00 0.00 63 1014.8
20260508175816 72 79 3.0 14.0 0.00 0.00 0.00 62 1014.5
20260508175312 72 118 8.0 11.0 0.00 0.00 0.00 63 1014.7
20260508174810 72 187 8.0 10.0 0.00 0.00 0.00 63 1014.6
20260508174307 72 80 6.0 13.0 0.00 0.00 0.00 62 1014.7
20260508173803 73 71 7.0 10.0 0.00 0.00 0.00 62 1014.8
20260508173301 72 219 3.0 13.0 0.00 0.00 0.00 63 1014.5
20260508172756 72 134 5.0 11.0 0.00 0.00 0.00 62 1014.8
20260508172254 72 86 3.0 6.0 0.00 0.00 0.00 60 1014.6
20260508171750 73 5 4.0 10.0 0.00 0.00 0.00 58 1014.9
20260508171246 73 97 3.0 6.0 0.00 0.00 0.00 56 1015.1
20260508170743 73 125 1.0 3.0 0.00 0.00 0.00 58 1014.7
20260508170242 73 76 8.0 10.0 0.00 0.00 0.00 58 1014.7
20260508165738 73 143 3.0 11.0 0.00 0.00 0.00 58 1014.7
20260508165235 73 144 4.0 6.0 0.00 0.00 0.00 57 1014.8
20260508164731 73 136 5.0 9.0 0.00 0.00 0.00 59 1015.0
20260508164228 73 220 5.0 10.0 0.00 0.00 0.00 60 1014.9
20260508163726 73 24 1.0 5.0 0.00 0.00 0.00 60 1015.1
20260508163223 73 142 4.0 9.0 0.00 0.00 0.00 58 1015.3
20260508162719 73 163 3.0 5.0 0.00 0.00 0.00 59 1015.3
20260508162216 73 145 3.0 5.0 0.00 0.00 0.00 58 1015.3
20260508161713 73 43 3.0 10.0 0.00 0.00 0.00 55 1015.4
20260508161211 73 78 3.0 9.0 0.00 0.00 0.00 56 1015.5
20260508160709 73 181 1.0 5.0 0.00 0.00 0.00 54 1015.6
20260508160206 73 156 6.0 10.0 0.00 0.00 0.00 58 1015.7
20260508155703 73 177 0.0 2.0 0.00 0.00 0.00 57 1015.7
20260508155200 72 141 1.0 2.0 0.00 0.00 0.00 58 1015.8
20260508154657 72 110 2.0 2.0 0.00 0.00 0.00 58 1016.0
20260508154154 71 130 3.0 7.0 0.00 0.00 0.00 59 1015.9
20260508153650 72 57 4.0 7.0 0.00 0.00 0.00 56 1016.0
20260508153147 72 65 3.0 13.0 0.00 0.00 0.00 60 1016.0
20260508152644 72 116 4.0 10.0 0.00 0.00 0.00 60 1015.9
20260508152139 71 142 1.0 3.0 0.00 0.00 0.00 62 1015.9
20260508151636 71 36 9.0 10.0 0.00 0.00 0.00 60 1015.9
20260508151133 70 166 1.0 2.0 0.00 0.00 0.00 62 1015.9
20260508150630 70 6 4.0 5.0 0.00 0.00 0.00 62 1016.1
20260508150127 70 142 1.0 6.0 0.00 0.00 0.00 58 1015.8
20260508145622 70 100 2.0 8.0 0.00 0.00 0.00 63 1015.8
20260508145119 69 122 1.0 9.0 0.00 0.00 0.00 63 1015.6
20260508144617 69 31 9.0 11.0 0.00 0.00 0.00 63 1015.9
20260508144114 68 33 2.0 7.0 0.00 0.00 0.00 65 1015.7
20260508143612 68 47 5.0 10.0 0.00 0.00 0.00 62 1015.9
20260508143108 68 27 3.0 7.0 0.00 0.00 0.00 64 1015.7
20260508142605 67 142 2.0 5.0 0.00 0.00 0.00 68 1015.5
20260508142102 67 37 4.0 5.0 0.00 0.00 0.00 70 1015.7
20260508141558 67 11 1.0 9.0 0.00 0.00 0.00 69 1015.6
20260508141056 66 26 5.0 7.0 0.00 0.00 0.00 69 1015.6
20260508140553 66 55 1.0 5.0 0.00 0.00 0.00 72 1015.8
20260508140049 66 16 1.0 5.0 0.00 0.00 0.00 72 1015.8
20260508135545 66 44 3.0 5.0 0.00 0.00 0.00 74 1015.5
20260508135041 66 252 1.0 5.0 0.00 0.00 0.00 74 1015.4
20260508134538 65 10 2.0 7.0 0.00 0.00 0.00 74 1015.5
20260508134035 65 301 2.0 11.0 0.00 0.00 0.00 75 1015.3
20260508133532 65 52 7.0 10.0 0.00 0.00 0.00 78 1015.2
20260508133029 64 57 5.0 7.0 0.00 0.00 0.00 81 1015.3
20260508132527 63 135 1.0 2.0 0.00 0.00 0.00 83 1015.1
20260508132023 62 52 3.0 5.0 0.00 0.00 0.00 85 1015.1
20260508131513 61 34 3.0 3.0 0.00 0.00 0.00 85 1014.9
20260508131010 61 114 0.0 1.0 0.00 0.00 0.00 86 1015.0
20260508130508 61 66 3.0 9.0 0.00 0.00 0.00 85 1015.0
20260508130003 61 11 3.0 8.0 0.00 0.00 0.00 89 1015.1
20260508125459 61 5 4.0 6.0 0.00 0.00 0.00 90 1015.0
20260508124957 61 115 1.0 5.0 0.00 0.00 0.00 90 1014.9
20260508124454 60 72 2.0 7.0 0.00 0.00 0.00 91 1015.0
20260508123952 60 59 4.0 6.0 0.00 0.00 0.00 91 1015.2
20260508123451 60 346 0.0 6.0 0.00 0.00 0.00 91 1014.8
20260508122946 60 107 2.0 6.0 0.00 0.00 0.00 91 1014.6
20260508122444 60 54 5.0 8.0 0.00 0.00 0.00 92 1014.8
20260508121940 60 52 1.0 5.0 0.00 0.00 0.00 91 1014.4
20260508121439 60 56 4.0 11.0 0.00 0.00 0.00 93 1014.5
20260508120936 60 47 4.0 6.0 0.00 0.00 0.00 93 1014.7
20260508120433 59 254 0.0 6.0 0.00 0.00 0.00 93 1014.4
20260508115931 59 50 5.0 6.0 0.00 0.00 0.00 94 1014.2
20260508115429 59 105 1.0 2.0 0.00 0.00 0.00 94 1014.3
20260508114925 59 65 1.0 2.0 0.00 0.00 0.00 95 1014.2
20260508114422 59 74 1.0 5.0 0.00 0.00 0.00 95 1013.8
20260508113919 59 88 1.0 6.0 0.00 0.00 0.00 95 1014.1
20260508113417 59 10 2.0 6.0 0.00 0.00 0.00 95 1014.1
20260508112914 58 34 2.0 5.0 0.00 0.00 0.00 95 1014.1
20260508112410 58 87 0.0 6.0 0.00 0.00 0.00 95 1013.9
20260508111907 58 86 1.0 2.0 0.00 0.00 0.00 95 1013.9
20260508111404 58 54 0.0 2.0 0.00 0.00 0.00 95 1013.7
20260508110901 58 34 3.0 5.0 0.00 0.00 0.00 95 1013.6
20260508110359 58 312 0.0 5.0 0.00 0.00 0.00 94 1013.3
20260508105858 58 52 1.0 2.0 0.00 0.00 0.00 94 1013.3
20260508105355 58 106 1.0 5.0 0.00 0.00 0.00 94 1013.2
20260508104852 59 12 1.0 2.0 0.00 0.00 0.00 94 1013.1
20260508104349 59 335 2.0 6.0 0.00 0.00 0.00 94 1013.0
20260508103846 59 48 1.0 2.0 0.00 0.00 0.00 94 1013.0
20260508103343 59 38 2.0 6.0 0.00 0.00 0.00 94 1012.8
20260508102841 59 81 2.0 2.0 0.00 0.00 0.00 94 1012.7
20260508102339 59 333 1.0 7.0 0.00 0.00 0.00 94 1012.7
20260508101836 59 44 1.0 3.0 0.00 0.00 0.00 93 1012.5
20260508101333 59 27 3.0 6.0 0.00 0.00 0.00 93 1012.2
20260508100830 60 324 2.0 7.0 0.00 0.00 0.00 93 1012.1
20260508100329 60 329 1.0 6.0 0.00 0.00 0.00 93 1012.3
20260508095824 60 334 3.0 3.0 0.00 0.00 0.00 93 1012.2
20260508095322 60 337 1.0 2.0 0.00 0.00 0.00 93 1012.2
20260508094819 60 338 1.0 2.0 0.00 0.00 0.00 93 1012.1
20260508094316 60 68 5.0 7.0 0.00 0.00 0.00 93 1011.9
20260508093813 60 27 2.0 5.0 0.00 0.00 0.00 93 1011.8
20260508093310 61 17 4.0 5.0 0.00 0.00 0.00 93 1011.9
20260508092808 61 19 2.0 5.0 0.00 0.00 0.00 93 1011.8
20260508092312 61 14 2.0 3.0 0.00 0.00 0.00 93 1012.0
20260508091803 61 319 1.0 2.0 0.00 0.00 0.00 93 1012.0
20260508091300 61 17 0.0 3.0 0.00 0.00 0.00 93 1011.9
20260508090757 61 50 2.0 5.0 0.00 0.00 0.00 93 1012.0